Lapse_Rate
4.2 4.2 4.3 4.7 4.9 5.9 5.8 5.7 5.8 5.6 5.9 5.6 5.0 5.0 4.9 5.3 5.1 4.7 4.6 4.9 5.0 4.9 5.4 4.8 4.8 5.5 5.1 4.1 3.8 3.8 3.8 3.4 3.9 4.2 1.5 0.9 1.2 1.3 0.4 2.0 1.9 2.9 3.9
3.8 3.2 3.8 4.5 5.4 5.6 6.1 6.2 6.1 5.9 5.7 5.6 5.6 5.6 5.3 5.5 5.3 5.3 4.9 6.1 4.9 5.0 5.4 4.8 4.7 5.6 4.8 4.7 3.7 3.2 3.7 3.7 3.7 4.9 2.8 1.4 1.2 0.7 0.8 1.3 2.2 2.6 4.2
4.3 4.3 4.2 4.4 4.5 5.1 5.4 5.0 5.2 5.4 6.0 6.1 5.6 5.4 5.1 5.1 4.8 4.6 4.7 4.9 5.1 5.2 5.2 5.0 5.3 5.0 4.5 4.5 4.5 4.5 4.0 3.9 3.7 3.6 3.4 2.6 2.7 1.4 0.9 0.6 1.2 3.0 4.9
4.1 3.8 3.9 4.2 4.5 4.9 5.4 5.4 5.1 5.0 4.9 4.9 5.1 5.6 5.5 5.2 5.0 4.7 4.6 4.7 4.6 4.9 4.7 4.7 4.9 5.3 5.2 4.4 4.6 4.4 4.9 4.4 3.7 3.4 3.3 4.3 3.5 2.5 1.4 2.3 2.3 2.3 4.4
3.3 3.7 3.8 4.0 4.6 4.8 4.8 4.9 5.0 4.8 4.7 4.4 4.5 4.7 5.1 5.8 6.2 5.0 5.3 5.3 5.0 5.0 4.7 4.7 5.2 5.0 4.7 4.4 5.1 4.7 4.2 4.1 3.9 3.8 3.0 3.3 4.0 3.4 2.9 3.4 3.1 2.9 3.3
3.2 3.7 3.9 4.2 4.7 5.0 4.9 5.0 5.0 5.0 5.0 4.9 4.9 4.9 5.1 6.8 4.8 5.8 5.5 5.1 5.3 5.2 4.7 4.7 4.7 4.8 4.6 4.0 3.8 3.4 4.2 4.4 3.7 4.1 5.6 3.7 3.9 4.0 3.2 3.0 3.3 3.4 3.8
4.2 4.8 4.8 4.9 5.1 5.7 5.9 5.8 5.6 5.2 5.0 5.2 5.4 5.5 5.2 5.0 5.3 4.4 4.8 4.9 5.2 5.0 4.9 4.7 5.0 7.4 4.8 4.8 4.4 3.6 3.0 3.1 3.5 5.9 4.9 5.7 4.6 3.2 3.2 4.1 4.3 2.9 2.9
5.1 4.7 3.9 3.1 3.2 3.7 4.2 4.4 4.8 4.8 4.7 4.4 4.4 4.7 4.6 5.5 3.0 3.5 4.0 3.9 4.3 4.8 4.9 4.8 4.7 4.7 4.5 4.4 4.4 4.8 4.4 4.3 3.5 3.1 3.4 5.0 5.2 5.8 3.1 3.4 4.0 4.1 3.3
3.9 3.1 2.7 2.9 3.2 3.3 3.2 3.5 4.3 4.2 3.9 3.9 4.1 3.9 4.2 4.1 3.9 3.6 3.6 4.0 4.4 4.5 5.1 5.4 5.5 5.5 5.0 4.7 4.8 5.3 5.4 5.0 5.3 2.9 2.2 2.5 2.1 2.2 2.4 3.0 4.6 3.7 6.1
3.3 2.7 2.8 2.2 2.6 3.1 3.5 4.1 5.0 4.6 3.7 3.6 3.8 4.3 4.7 5.0 4.5 3.4 2.6 3.4 3.7 4.2 4.7 5.1 4.7 3.9 1.2 1.2 2.9 2.6 3.6 4.9 4.6 4.8 5.1 4.2 2.0 2.4 1.8 2.9 4.2 4.4 5.2
3.7 3.5 2.3 3.1 3.5 4.1 5.1 5.3 7.4 7.0 4.7 4.4 4.8 5.4 6.8 5.7 6.3 3.7 2.8 5.5 4.7 4.8 4.9 5.0 4.9 3.5 0.8 0.4 1.1 2.5 3.4 4.2 3.3 3.4 3.8 4.2 4.5 4.5 4.6 3.8 3.1 3.7 4.6
3.4 2.4 2.6 2.9 4.3 6.4 6.6 6.6 5.8 5.1 5.3 5.8 5.7 5.8 6.0 6.2 2.0 2.0 2.1 2.4 3.3 4.7 4.8 4.8 3.4 0.4 0.2 0.7 1.2 1.3 0.9 1.3 3.3 3.2 3.9 4.1 4.1 4.2 4.9 5.2 5.2 3.9 3.6
2.1 2.3 2.8 3.9 7.3 5.1 6.8 6.2 5.3 6.1 5.1 5.0 4.9 5.3 5.4 5.7 3.4 2.7 2.8 2.2 2.9 4.0 5.1 3.6 2.0 0.8 0.9 2.1 2.2 2.2 2.0 1.9 3.4 4.1 4.7 5.4 5.7 5.9 5.7 5.1 4.6 4.4 4.0
2.7 3.1 4.4 5.5 6.6 8.4 8.1 8.1 7.9 7.0 5.6 4.8 6.2 6.2 6.4 5.6 4.7 3.7 3.1 3.3 3.3 2.2 2.2 1.0 1.0 1.3 1.5 2.1 2.9 3.2 2.7 2.8 3.9 5.0 5.6 6.0 5.8 5.1 5.7 6.4 7.0 5.5 5.0
3.8 5.0 6.6 5.6 5.3 5.2 7.9 7.1 7.2 7.6 6.1 5.6 4.5 5.3 5.2 4.1 3.7 0.6 -1.3 -0.4 -0.7 -0.7 -1.5 -1.1 0.9 2.4 3.5 4.0 4.5 5.1 5.6 4.9 4.7 4.5 4.5 4.8 5.2 5.7 5.9 5.9 5.1 5.0 5.2
5.2 5.1 4.7 4.9 4.4 4.8 7.2 5.7 5.6 4.3 3.9 1.5 1.5 5.1 5.6 4.1 0.5 -0.7 -1.5 -2.0 -1.6 -1.1 0.5 2.2 4.4 5.3 5.7 5.8 5.8 5.8 5.9 5.3 5.5 5.2 4.8 4.8 5.1 5.9 6.0 5.8 5.1 5.2 5.4
4.8 4.7 4.6 4.9 4.6 4.3 4.1 3.9 4.1 2.9 0.4 -0.1 0.1 2.0 2.7 0.6 -0.7 -1.2 -1.4 -0.9 1.0 2.4 3.4 3.8 3.6 3.4 3.3 3.5 3.8 4.5 4.7 4.8 4.7 5.0 5.3 5.2 5.1 5.2 5.3 5.4 5.4 5.1 4.9
5.2 5.9 4.5 4.4 4.5 4.4 4.0 4.1 3.6 4.0 3.3 2.9 -0.3 2.4 1.4 0.2 -0.2 -0.5 -0.9 1.1 2.0 3.1 3.5 3.7 3.5 3.3 2.6 1.9 1.9 2.0 2.4 2.7 3.1 3.9 5.0 5.3 5.2 5.3 5.5 5.6 5.1 5.0 4.5
5.2 4.1 4.2 4.4 4.0 4.5 4.4 4.4 4.3 4.1 3.9 4.1 3.6 2.4 2.9 2.9 1.0 1.5 1.8 3.9 4.5 4.1 4.4 4.1 3.8 3.4 2.8 2.6 2.3 2.0 1.7 1.6 1.6 1.4 2.0 2.9 3.9 5.3 5.4 5.2 5.0 2.8 3.3
4.1 5.4 5.5 4.6 4.4 4.2 4.2 4.5 4.2 4.1 4.1 3.9 3.2 3.2 3.1 3.5 3.2 3.0 3.5 4.3 4.4 4.0 3.8 3.6 3.7 3.5 3.0 2.8 2.3 1.8 1.8 1.7 1.5 0.7 0.4 0.6 1.6 2.5 4.8 5.2 5.1 5.1 4.3
4.1 4.7 5.7 4.6 4.5 4.8 4.8 4.8 4.3 4.2 4.5 4.8 2.9 3.1 2.9 3.8 4.0 3.3 2.8 4.0 4.1 3.8 4.6 4.2 3.6 3.6 3.4 3.5 3.0 2.3 1.9 2.0 1.4 0.6 -0.0 -0.2 0.1 0.8 1.9 3.2 4.5 5.2 5.6
4.7 5.3 4.9 4.8 5.0 5.1 4.8 4.4 4.6 4.6 4.9 4.9 3.6 3.4 2.1 4.6 4.4 3.9 3.1 3.8 3.9 4.8 3.8 3.8 4.5 4.2 3.4 3.2 3.1 2.7 1.9 1.6 0.9 -0.0 -0.6 -0.5 -0.4 -0.1 0.5 1.8 3.0 4.0 4.4
5.2 5.3 5.2 4.8 5.6 5.8 5.4 5.4 5.1 5.1 5.3 5.1 5.3 5.5 5.4 5.8 5.0 4.4 3.9 4.2 4.0 4.1 4.1 3.8 4.3 4.9 3.7 3.9 3.2 2.1 1.4 1.2 -0.2 -1.1 -0.7 -0.8 -0.8 0.2 0.5 1.4 2.4 3.1 3.6
5.8 5.6 5.5 4.9 5.1 5.7 5.7 5.6 5.4 5.7 5.4 5.7 5.8 5.4 5.7 5.8 5.7 5.6 5.3 4.8 4.4 4.5 4.6 4.5 4.4 4.8 4.8 4.2 3.5 2.6 1.3 -0.8 -2.4 -1.9 -1.9 -0.9 -0.2 0.0 1.1 2.2 2.9 3.7 4.0
5.1 4.2 4.8 4.5 4.9 4.8 5.7 6.0 5.4 5.8 5.7 5.8 5.5 5.4 5.7 5.7 5.6 5.9 5.7 5.6 5.3 5.6 6.1 6.0 6.0 6.4 6.6 4.8 3.1 1.6 0.0 -3.7 -2.9 -3.4 -2.7 -1.6 -0.0 1.5 2.9 3.8 4.4 4.9 4.9
5.7 6.0 5.1 4.8 4.7 6.2 5.9 6.2 6.1 6.1 5.6 5.3 5.3 4.7 5.2 5.3 5.2 5.3 5.3 5.9 5.5 5.5 6.3 5.7 6.4 7.4 6.9 4.4 2.8 1.3 -0.5 -2.8 -3.9 -4.2 -3.6 -1.2 1.9 3.0 3.9 3.8 4.8 5.1 5.7
Wind_Speed
8 6 5 3 4 3 1 0 1 3 2 2 5 5 6 6 6 6 6 6 6 5 5 5 6 5 4 4 3 3 4 4 4 3 3 5 5 4 3 14 23 23 20
7 8 7 5 3 4 3 3 3 2 2 1 2 3 3 4 5 6 6 6 7 7 7 6 6 5 6 6 4 4 4 4 4 6 4 5 8 6 6 8 10 18 20
7 8 7 6 7 6 6 6 6 5 3 2 3 3 4 5 5 6 6 6 6 6 6 7 8 7 6 4 5 6 3 2 3 2 4 3 6 2 4 4 7 12 18
8 8 8 7 7 6 6 6 6 6 5 6 5 3 4 5 6 6 6 6 6 6 6 6 6 6 7 7 6 7 6 4 4 3 4 4 4 4 3 5 5 5 6
8 7 7 7 7 7 7 7 7 7 6 6 6 6 6 4 2 4 5 5 5 6 6 6 6 8 10 9 5 6 6 5 5 5 4 3 3 2 4 4 5 4 4
7 6 5 6 6 5 5 5 5 5 5 5 6 5 6 4 7 7 5 4 4 5 6 6 6 8 9 11 13 14 10 8 7 6 9 6 8 5 4 4 3 2 3
6 4 5 5 5 4 4 5 5 6 5 5 5 5 6 6 9 5 7 3 4 5 6 6 6 6 7 7 9 11 11 14 14 12 10 11 10 6 4 5 4 4 4
4 6 7 8 7 7 7 6 6 5 6 5 6 7 6 6 8 10 11 6 5 6 6 7 7 7 7 8 7 8 7 7 7 7 10 13 12 12 7 7 8 4 2
7 7 6 6 6 5 5 5 3 4 4 5 5 6 6 6 9 11 8 6 6 7 6 7 7 7 10 13 8 11 11 8 9 14 13 14 16 14 12 4 7 4 9
6 6 6 6 4 4 4 5 3 2 4 4 6 6 7 5 8 9 6 3 5 5 6 6 8 5 6 6 4 5 8 9 6 7 6 6 8 7 12 9 9 9 9
5 5 5 3 3 3 3 2 4 5 5 6 6 5 5 5 5 12 16 6 6 6 5 5 4 4 8 9 5 5 7 9 7 7 7 5 4 5 5 5 8 8 9
5 6 5 5 3 3 5 4 5 5 5 4 5 4 4 6 16 15 15 12 12 7 7 7 7 14 14 15 10 11 13 11 7 5 5 5 5 5 6 7 10 8 11
6 4 3 3 2 2 4 4 3 5 4 4 3 4 4 4 7 12 11 11 9 7 6 8 13 15 15 12 13 16 14 7 7 7 7 8 8 8 7 6 7 10 10
3 3 2 3 2 4 4 3 4 2 3 4 4 4 5 5 6 7 7 8 12 9 10 8 11 14 15 13 11 9 6 7 7 7 8 7 6 3 4 5 8 7 7
2 4 2 2 5 4 3 2 2 1 2 1 3 3 4 4 5 6 6 6 6 9 11 5 5 4 6 7 8 9 8 6 5 6 5 6 7 7 9 8 7 7 8
2 2 1 1 3 2 1 2 5 8 2 10 7 6 1 3 4 9 13 13 12 10 1 4 6 7 7 8 8 8 8 8 7 6 5 5 7 8 9 9 7 8 10
4 4 2 4 4 3 3 4 3 6 10 11 11 7 3 3 8 10 13 13 12 10 8 7 7 7 8 8 9 9 9 9 10 8 8 7 7 7 8 9 9 9 8
5 5 3 2 4 3 5 4 4 4 4 3 4 3 8 9 7 10 11 9 7 8 7 7 7 7 8 8 9 8 9 9 9 11 9 8 7 7 7 8 8 10 8
2 5 3 2 3 3 1 3 3 3 4 3 3 1 6 5 10 8 9 7 6 6 6 6 7 7 7 7 7 8 9 8 9 9 9 9 9 9 8 8 9 10 8
3 7 3 2 2 4 3 4 4 4 4 4 4 2 0 2 3 3 3 4 6 6 6 6 7 7 7 8 8 8 8 9 9 8 8 9 9 8 9 8 7 9 7
4 3 3 3 4 3 2 3 2 3 3 2 4 4 7 3 3 2 3 2 2 3 4 5 5 6 6 7 7 7 8 8 8 9 8 8 8 10 10 9 8 7 9
3 2 3 3 3 3 3 3 1 3 3 3 3 3 8 1 3 3 3 1 4 4 3 2 4 4 4 4 5 7 8 9 8 8 9 9 9 9 8 9 9 8 8
3 3 4 4 2 3 1 2 2 2 3 3 2 2 1 0 3 3 4 4 4 4 3 4 4 4 3 4 4 3 5 8 8 8 9 9 9 8 8 8 8 9 8
1 4 4 4 3 2 1 1 2 3 3 2 2 2 1 2 3 3 4 4 5 5 5 4 4 6 4 1 3 6 7 10 11 8 10 7 8 9 8 8 8 11 10
5 5 5 5 4 4 2 2 3 2 2 1 3 3 1 2 3 1 2 1 2 4 5 3 3 4 0 2 6 11 12 13 12 13 8 8 9 12 9 8 9 9 9
5 2 4 3 3 3 2 1 1 4 4 3 2 4 3 3 4 3 3 2 2 4 5 4 6 7 1 4 9 14 16 16 13 13 11 6 7 9 9 11 14 9 11
Wind_Direction
118 111 120 130 115 110 96 95 71 352 37 150 216 220 214 229 223 211 217 229 241 244 235 244 258 261 260 258 213 171 200 184 232 273 202 208 196 230 319 192 238 253 259
128 138 144 129 121 116 70 50 51 50 40 272 269 264 255 259 243 224 228 237 232 232 228 230 250 250 252 258 270 248 208 230 220 248 205 202 213 208 218 228 237 248 247
112 95 78 67 68 70 61 60 48 30 12 322 261 257 263 264 261 258 238 236 243 245 235 234 239 239 243 227 247 268 252 222 204 225 284 203 218 186 208 234 239 243 244
79 73 67 61 57 47 48 41 29 21 23 3 360 319 269 261 261 252 240 244 245 250 258 251 250 245 236 231 241 241 250 255 263 243 239 261 216 231 214 234 235 218 250
78 78 77 71 55 47 38 29 17 12 1 356 352 347 342 330 317 284 268 259 261 270 275 272 266 251 240 237 238 247 231 231 241 252 250 225 244 251 210 232 229 236 244
88 86 88 83 72 53 31 14 2 343 333 337 332 330 332 332 27 9 11 342 325 297 278 279 280 275 270 252 251 242 229 238 246 241 256 249 250 228 227 229 211 181 260
107 108 103 93 77 59 26 7 356 351 352 341 326 323 317 317 316 327 303 280 273 278 279 280 285 288 296 285 271 255 251 239 234 250 253 250 256 222 219 254 255 203 217
111 78 61 60 53 35 30 25 10 1 1 352 341 348 359 8 30 8 358 341 299 275 268 268 266 270 270 275 281 279 259 242 231 226 228 247 251 259 219 233 232 244 247
75 78 71 67 48 35 18 354 346 7 348 338 347 338 336 328 333 331 342 327 311 300 279 270 263 263 257 267 292 289 281 267 250 242 229 226 242 250 249 279 265 238 258
78 84 58 44 40 15 342 327 330 358 316 303 299 296 288 309 311 344 17 336 309 295 294 294 291 311 86 86 4 316 304 291 286 284 274 254 229 243 236 218 245 247 250
67 74 82 45 359 24 22 320 309 316 310 296 284 282 307 309 7 23 11 353 348 330 323 314 301 301 348 312 261 257 260 276 275 274 278 264 241 240 249 217 212 218 237
62 65 41 36 4 5 355 344 340 310 307 338 1 358 354 8 53 24 20 8 353 349 331 334 342 337 332 323 319 273 270 288 283 256 252 254 238 235 244 243 245 219 225
62 59 29 358 48 5 8 352 346 14 21 357 10 5 356 5 30 8 350 340 331 332 310 319 321 314 310 304 288 283 283 278 273 269 263 263 258 252 250 248 245 235 227
67 33 295 256 255 34 18 353 356 7 355 352 3 9 1 38 7 353 348 341 338 330 315 309 298 287 276 274 287 279 256 244 237 246 258 263 264 254 252 252 265 254 240
139 255 307 36 81 45 10 357 352 302 196 39 17 23 31 7 345 317 307 326 315 296 304 289 295 285 290 301 305 303 298 283 261 248 245 262 268 271 275 274 263 262 254
309 131 243 213 136 167 148 303 254 236 9 139 124 78 89 42 353 3 346 338 333 349 0 330 341 348 342 334 328 331 327 315 313 296 269 258 265 271 273 272 265 253 255
197 235 249 207 195 187 201 218 254 41 111 130 125 136 118 60 37 9 5 353 358 359 19 5 359 352 344 344 344 344 337 327 310 307 297 272 264 264 266 268 267 260 249
214 197 251 280 220 206 215 239 225 166 161 161 192 158 59 48 47 19 5 355 17 19 12 356 351 354 353 350 347 342 339 337 342 342 324 296 284 275 273 271 263 259 249
275 184 231 304 307 221 41 10 12 130 139 163 113 278 50 26 68 28 10 22 5 0 356 353 352 351 354 349 346 343 337 338 341 335 344 332 335 328 299 281 273 256 241
234 171 206 301 34 40 35 22 352 75 90 88 120 125 231 62 57 26 29 21 11 354 351 349 354 354 347 349 343 340 337 343 340 339 338 329 324 319 314 324 310 275 238
163 209 230 84 66 37 6 344 344 103 85 69 159 171 186 142 138 100 44 8 329 326 343 351 357 353 348 346 342 341 339 330 335 330 326 318 321 322 321 315 315 320 313
344 110 115 111 78 3 330 313 6 97 74 54 151 210 211 231 126 139 114 354 287 270 200 260 332 317 293 309 335 347 341 329 328 326 323 319 323 322 322 324 319 315 309
301 142 124 136 117 336 67 355 49 84 77 86 85 71 118 29 125 137 165 225 262 261 232 227 254 270 262 281 314 312 316 320 319 315 313 316 318 322 321 320 317 314 316
268 170 174 173 173 204 136 130 114 101 135 162 146 122 73 313 140 188 215 241 268 276 231 231 250 268 258 272 352 329 301 316 308 302 312 301 306 310 314 315 314 318 317
272 196 193 187 180 185 174 251 183 165 155 257 202 168 185 268 176 240 240 295 319 319 321 302 259 293 324 65 2 339 330 337 328 321 312 302 305 312 322 322 321 313 308
286 56 197 165 156 118 171 196 186 191 198 243 227 177 215 244 216 221 217 225 286 309 303 304 296 315 134 38 348 340 340 341 338 329 319 300 311 321 325 323 326 336 337